When you browse on this site, cookies collect data to enhance your experience and personalize the content and advertising you see.
Visit our Privacy Policy to learn more. By continuing to use the site, you agree to this use of cookies and data.
  • In Austria
  • List of Countries
  • For 7 days
  • Water Temperature
  • Weather Map
  • News
  • Weather Widgets
  • user-avatar
    Login

    Hourly Weather Kitzbuhel

    Today, 25 February, Tuesday

    Time Temperature Precipitation Wind Pressure Humidity
    00:00 +5°C° 0 mm 2 mps 673 mmHg 75%
    01:00 +5°C° 0 mm 1 mps 673 mmHg 75%
    02:00 +5°C° 0 mm 1 mps 672 mmHg 75%
    03:00 +5°C° 0 mm 1 mps 672 mmHg 75%
    04:00 +4°C° 0 mm 1 mps 671 mmHg 76%
    05:00 +4°C° 0 mm 1 mps 671 mmHg 77%
    06:00 +4°C° 0 mm 1 mps 671 mmHg 78%
    07:00 +4°C° 0 mm 1 mps 670 mmHg 78%
    08:00 +5°C° 0 mm 1 mps 670 mmHg 77%
    09:00 +7°C° 0 mm 1 mps 670 mmHg 75%
    10:00 +8°C° 0 mm 1 mps 670 mmHg 74%
    11:00 +9°C° 0 mm 1 mps 670 mmHg 72%
    12:00 +9°C° 0 mm 0 mps 670 mmHg 71%
    13:00 +9°C° 0 mm 0 mps 669 mmHg 69%
    14:00 +10°C° 0.1 mm 1 mps 669 mmHg 72%
    15:00 +9°C° 0.1 mm 1 mps 668 mmHg 76%
    16:00 +9°C° 0.1 mm 1 mps 667 mmHg 79%
    17:00 +8°C° 0.2 mm 1 mps 667 mmHg 82%
    18:00 +6°C° 0.2 mm 0 mps 667 mmHg 86%
    19:00 +5°C° 0.2 mm 0 mps 667 mmHg 90%
    20:00 +5°C° 0.6 mm 0 mps 666 mmHg 91%
    21:00 +5°C° 0.6 mm 1 mps 666 mmHg 92%
    22:00 +5°C° 0.6 mm 1 mps 665 mmHg 94%
    23:00 +4°C° 1.9 mm 1 mps 665 mmHg 95%

    Tomorrow, 26 February, Wednesday

    Time Temperature Precipitation Wind Pressure Humidity
    00:00 +4°C° 1.9 mm 1 mps 664 mmHg 96%
    01:00 +3°C° 1.9 mm 1 mps 664 mmHg 97%
    02:00 +3°C° 1.3 mm 1 mps 664 mmHg 96%
    03:00 +2°C° 1.3 mm 1 mps 663 mmHg 95%
    04:00 +1°C° 1.3 mm 2 mps 662 mmHg 94%
    05:00 +1°C° 0.9 mm 2 mps 662 mmHg 94%
    06:00 -1°C° 0.9 mm 2 mps 662 mmHg 94%
    07:00 -1°C° 0.9 mm 2 mps 662 mmHg 94%
    08:00 -1°C° 0.5 mm 2 mps 662 mmHg 87%
    09:00 -2°C° 0.5 mm 2 mps 661 mmHg 80%
    10:00 -2°C° 0.5 mm 2 mps 661 mmHg 73%
    11:00 -1°C° 0.1 mm 3 mps 662 mmHg 70%
    12:00 0°C° 0.1 mm 3 mps 662 mmHg 68%
    13:00 -1°C° 0.1 mm 4 mps 662 mmHg 66%
    14:00 -2°C° 0.7 mm 4 mps 662 mmHg 69%
    15:00 -4°C° 0.7 mm 5 mps 662 mmHg 72%
    16:00 -5°C° 0.7 mm 5 mps 663 mmHg 75%
    17:00 -5°C° 0.2 mm 4 mps 663 mmHg 81%
    18:00 -6°C° 0.2 mm 3 mps 664 mmHg 86%
    19:00 -4°C° 0.2 mm 1 mps 665 mmHg 92%
    20:00 -6°C° 0.8 mm 2 mps 665 mmHg 93%
    21:00 -5°C° 0.8 mm 2 mps 666 mmHg 94%
    22:00 -5°C° 0.8 mm 2 mps 666 mmHg 95%
    23:00 -5°C° 0.9 mm 2 mps 667 mmHg 95%

    Day after tomorrow, 27 February, Thursday

    Time Temperature Precipitation Wind Pressure Humidity
    00:00 -5°C° 0.9 mm 2 mps 668 mmHg 95%
    01:00 -5°C° 0.9 mm 2 mps 668 mmHg 95%
    02:00 -5°C° 0.3 mm 2 mps 668 mmHg 95%
    03:00 -6°C° 0.3 mm 2 mps 668 mmHg 94%
    04:00 -4°C° 0.3 mm 1 mps 669 mmHg 94%
    05:00 -6°C° 0.2 mm 2 mps 669 mmHg 92%
    06:00 -6°C° 0.2 mm 2 mps 669 mmHg 91%
    07:00 -6°C° 0.2 mm 2 mps 670 mmHg 90%
    08:00 -3°C° 0 mm 1 mps 670 mmHg 83%
    09:00 -2°C° 0 mm 1 mps 670 mmHg 76%
    10:00 0°C° 0 mm 1 mps 670 mmHg 69%
    11:00 0°C° 0 mm 1 mps 669 mmHg 67%
    12:00 -1°C° 0 mm 2 mps 668 mmHg 65%
    13:00 +1°C° 0 mm 2 mps 668 mmHg 63%
    14:00 +1°C° 0 mm 2 mps 667 mmHg 65%
    15:00 +1°C° 0 mm 2 mps 666 mmHg 68%
    16:00 0°C° 0 mm 3 mps 665 mmHg 70%
    17:00 -1°C° 0.5 mm 3 mps 664 mmHg 75%
    18:00 -3°C° 0.5 mm 4 mps 663 mmHg 79%
    19:00 -4°C° 0.5 mm 4 mps 663 mmHg 84%
    20:00 -4°C° 0.1 mm 4 mps 663 mmHg 83%
    21:00 -5°C° 0.1 mm 4 mps 662 mmHg 82%
    22:00 -5°C° 0.1 mm 3 mps 662 mmHg 81%
    23:00 -5°C° 0.6 mm 3 mps 663 mmHg 86%

    28 February, Friday

    Time Temperature Precipitation Wind Pressure Humidity
    00:00 -4°C° 0.6 mm 4 mps 665 mmHg 90%
    01:00 -4°C° 0.6 mm 4 mps 666 mmHg 94%
    02:00 -5°C° 0.7 mm 4 mps 667 mmHg 94%
    03:00 -5°C° 0.7 mm 3 mps 667 mmHg 94%
    04:00 -6°C° 0.7 mm 3 mps 668 mmHg 93%
    05:00 -6°C° 0.6 mm 3 mps 669 mmHg 94%
    06:00 -6°C° 0.6 mm 3 mps 670 mmHg 95%
    07:00 -5°C° 0.6 mm 2 mps 671 mmHg 96%
    08:00 -6°C° 0.4 mm 3 mps 672 mmHg 90%
    09:00 -5°C° 0.4 mm 3 mps 673 mmHg 85%
    10:00 -4°C° 0.4 mm 4 mps 673 mmHg 80%
    11:00 -3°C° 0.1 mm 4 mps 674 mmHg 75%
    12:00 -1°C° 0.1 mm 3 mps 674 mmHg 70%
    13:00 -1°C° 0.1 mm 3 mps 675 mmHg 65%
    14:00 +1°C° 0 mm 2 mps 675 mmHg 65%
    15:00 +2°C° 0 mm 1 mps 674 mmHg 66%
    16:00 +1°C° 0 mm 0 mps 674 mmHg 67%
    17:00 0°C° 0 mm 1 mps 674 mmHg 68%
    18:00 -1°C° 0 mm 1 mps 674 mmHg 70%
    19:00 -5°C° 0 mm 2 mps 674 mmHg 71%
    20:00 -5°C° 0 mm 2 mps 674 mmHg 71%
    21:00 -5°C° 0 mm 2 mps 674 mmHg 70%
    22:00 -4°C° 0 mm 2 mps 674 mmHg 70%
    23:00 -4°C° 0 mm 2 mps 674 mmHg 70%

    29 February, Saturday

    Time Temperature Precipitation Wind Pressure Humidity
    00:00 -4°C° 0 mm 2 mps 673 mmHg 70%
    01:00 -3°C° 0 mm 2 mps 673 mmHg 71%
    02:00 -3°C° 0.1 mm 2 mps 673 mmHg 73%
    03:00 -2°C° 0.1 mm 2 mps 672 mmHg 75%
    04:00 -2°C° 0.1 mm 3 mps 672 mmHg 77%
    05:00 -2°C° 0.1 mm 3 mps 671 mmHg 77%
    06:00 -2°C° 0.1 mm 3 mps 671 mmHg 77%
    07:00 -1°C° 0.1 mm 3 mps 671 mmHg 77%
    08:00 0°C° 0 mm 3 mps 671 mmHg 78%
    09:00 +2°C° 0 mm 2 mps 670 mmHg 78%
    10:00 +3°C° 0 mm 2 mps 670 mmHg 79%
    11:00 +4°C° 0 mm 2 mps 670 mmHg 81%
    12:00 +5°C° 0 mm 2 mps 669 mmHg 83%
    13:00 +6°C° 0 mm 2 mps 669 mmHg 85%
    14:00 +4°C° 0 mm 3 mps 668 mmHg 85%
    15:00 +4°C° 0 mm 3 mps 667 mmHg 84%
    16:00 +4°C° 0 mm 3 mps 667 mmHg 84%
    17:00 +2°C° 0 mm 3 mps 667 mmHg 83%
    18:00 +1°C° 0 mm 3 mps 667 mmHg 82%
    19:00 -1°C° 0 mm 3 mps 667 mmHg 81%
    20:00 -1°C° 0.1 mm 2 mps 667 mmHg 84%
    21:00 -1°C° 0.1 mm 2 mps 668 mmHg 87%
    22:00 +1°C° 0.1 mm 1 mps 668 mmHg 89%
    23:00 0°C° 0.8 mm 1 mps 668 mmHg 92%

    1 March, Sunday

    Time Temperature Precipitation Wind Pressure Humidity
    00:00 0°C° 0.8 mm 1 mps 668 mmHg 94%
    01:00 0°C° 0.8 mm 1 mps 668 mmHg 96%
    02:00 0°C° 0.3 mm 1 mps 668 mmHg 95%
    03:00 0°C° 0.3 mm 1 mps 668 mmHg 95%
    04:00 -1°C° 0.3 mm 1 mps 668 mmHg 94%
    05:00 -1°C° 0.1 mm 1 mps 668 mmHg 94%
    06:00 -1°C° 0.1 mm 1 mps 668 mmHg 93%
    07:00 -2°C° 0.1 mm 1 mps 668 mmHg 93%
    08:00 0°C° 0 mm 1 mps 669 mmHg 90%
    09:00 +1°C° 0 mm 1 mps 669 mmHg 87%
    10:00 +2°C° 0 mm 1 mps 669 mmHg 83%
    11:00 +3°C° 0.1 mm 1 mps 669 mmHg 83%
    12:00 +3°C° 0.1 mm 1 mps 669 mmHg 83%
    13:00 +3°C° 0.1 mm 1 mps 669 mmHg 83%
    14:00 +3°C° 0.1 mm 1 mps 669 mmHg 83%
    15:00 +3°C° 0.1 mm 1 mps 669 mmHg 83%
    16:00 +3°C° 0.1 mm 1 mps 669 mmHg 82%
    17:00 +2°C° 0 mm 1 mps 669 mmHg 85%
    18:00 0°C° 0 mm 1 mps 669 mmHg 88%
    19:00 -1°C° 0 mm 1 mps 669 mmHg 91%
    20:00 -1°C° 0 mm 1 mps 669 mmHg 90%
    21:00 -1°C° 0 mm 1 mps 669 mmHg 90%
    22:00 -2°C° 0 mm 1 mps 669 mmHg 89%
    23:00 -4°C° 0 mm 2 mps 668 mmHg 88%
    Show more